Wind_Speed
20 20 20 21 23 23 23 22 22 22 22 22 22 22 22 21 21 21 20 20 20 20 19 19 19 18 18 19 20 20 20 21 22 23 24 24 24 25 25 24 24 24 24
20 20 20 22 22 23 22 22 22 22 22 22 22 21 21 21 20 20 20 20 19 18 18 19 18 18 16 18 19 18 18 19 21 22 23 23 24 24 23 24 24 24 24
19 20 20 21 22 22 21 22 21 21 21 22 21 21 21 21 20 20 20 19 19 18 18 17 17 16 16 16 16 16 17 18 19 20 21 22 24 24 22 23 24 25 24
19 19 19 20 21 21 21 21 21 21 22 22 21 21 21 20 19 20 20 19 18 17 16 16 15 15 16 16 15 15 15 15 16 18 19 20 22 24 23 23 24 25 25
18 19 19 20 21 21 21 20 21 21 21 21 21 21 20 20 20 20 19 19 17 16 15 15 15 14 14 13 14 14 14 14 15 16 17 19 20 22 22 22 23 24 25
18 19 19 20 21 21 21 20 20 20 20 21 20 20 20 19 19 19 18 17 15 14 14 14 14 13 13 12 13 14 14 14 15 15 16 18 19 20 21 20 21 22 23
17 18 19 19 20 20 20 20 19 20 20 19 20 19 19 19 18 18 17 17 16 14 14 14 13 13 12 12 13 13 13 13 13 14 14 15 17 18 19 19 20 20 21
18 18 18 18 19 20 19 19 18 18 19 19 18 18 18 18 18 17 16 15 15 14 14 13 13 12 12 12 12 12 11 12 13 13 13 13 14 16 17 18 19 20 20
16 17 16 17 18 18 17 17 17 18 19 18 18 17 17 17 17 16 15 14 14 13 13 12 12 11 11 11 11 10 11 11 11 11 11 12 13 15 16 17 19 20 20
15 15 15 16 16 16 16 16 17 17 17 17 17 16 16 16 15 14 14 13 13 12 12 11 11 11 10 10 10 9 9 9 9 10 11 13 14 15 16 18 19 19 20
14 14 14 15 16 16 15 16 17 16 16 16 16 15 14 14 14 14 14 14 13 12 12 11 11 11 10 10 10 9 9 9 9 10 11 13 14 15 16 18 19 20 20
13 13 14 15 15 15 15 15 15 16 15 15 15 15 14 14 14 14 14 14 13 13 12 12 11 10 10 10 10 10 10 10 11 12 13 14 15 15 16 18 19 20 21
12 12 12 14 13 14 14 14 15 16 15 15 15 15 15 15 15 14 14 14 13 13 12 12 11 11 11 11 12 12 11 12 12 13 13 14 15 16 17 18 19 20 21
11 11 12 13 13 13 14 15 15 16 15 15 15 16 16 16 15 15 14 14 14 13 13 13 13 13 13 13 13 13 13 13 14 15 15 15 16 17 18 19 20 20 21
11 11 11 12 13 14 14 15 15 15 15 15 16 16 16 16 16 15 14 14 14 14 15 14 14 15 15 15 15 15 16 16 16 17 17 17 18 18 18 20 20 21 22
10 11 11 12 13 15 15 15 15 15 16 16 16 17 16 16 16 16 15 15 15 15 15 16 16 17 17 17 17 17 17 18 18 19 19 19 19 19 19 20 21 21 22
10 10 11 12 13 14 14 15 15 15 16 16 17 17 17 16 16 16 16 17 16 16 17 17 17 17 18 18 19 18 19 19 19 20 20 21 21 21 21 21 22 23 24
9 10 11 12 13 14 14 14 15 16 16 17 18 18 17 17 17 18 17 18 18 19 19 19 19 20 20 20 20 20 20 21 21 22 22 21 21 22 23 23 24 25 26
10 11 13 13 14 14 14 14 16 17 17 18 18 19 19 19 19 19 19 18 19 20 21 21 21 21 21 21 22 22 22 22 22 23 23 23 23 23 24 24 25 26 26
11 12 13 13 14 14 14 15 16 17 18 19 20 20 20 20 20 20 20 20 21 22 22 22 22 21 21 22 22 22 23 23 23 23 23 23 23 24 25 25 26 27 27
12 12 13 13 13 14 15 16 17 18 19 20 21 21 21 21 20 21 21 23 23 23 23 22 22 22 23 23 24 25 24 24 24 24 24 24 25 25 26 26 27 27 27
11 12 13 14 14 15 16 17 18 19 20 21 22 22 21 21 22 22 23 23 23 23 23 23 23 24 25 25 25 25 25 25 25 25 25 25 26 26 26 27 27 28 29
11 12 13 14 15 16 17 18 19 20 22 22 22 23 23 23 24 24 25 25 25 25 25 25 26 27 27 27 26 25 25 25 25 25 26 26 26 27 27 27 27 28 29
12 13 14 15 16 17 18 19 20 21 22 23 23 23 24 25 25 26 26 26 26 26 27 27 28 28 27 27 26 26 26 26 26 27 27 28 27 27 27 28 29 29 29
14 14 15 16 17 18 19 20 21 22 23 24 25 25 26 27 27 27 27 27 28 29 29 29 29 28 28 27 27 27 28 28 28 29 29 29 28 28 28 27 28 28 28
15 15 16 17 18 20 21 22 23 24 25 26 26 27 28 28 28 28 29 30 30 30 29 29 30 30 29 28 28 28 28 28 28 29 29 29 29 29 29 28 28 28 28
Wind_Direction
306 306 308 311 313 314 315 315 314 314 315 316 318 318 318 316 315 312 309 307 305 300 296 295 291 286 280 273 269 266 262 256 253 250 248 246 245 242 243 244 244 243 243
306 307 310 312 314 317 314 311 311 313 315 316 318 320 318 317 316 314 312 309 306 303 299 296 292 290 286 279 274 272 266 260 255 253 249 246 243 241 243 242 242 243 242
307 308 309 311 314 317 315 313 313 315 317 318 317 319 320 317 316 317 315 313 308 304 302 299 297 292 287 286 281 275 269 263 258 254 248 245 243 242 242 243 244 244 243
307 308 310 312 313 315 315 315 315 316 317 319 319 318 318 318 319 319 318 316 314 309 305 301 300 295 290 286 281 275 270 265 258 252 247 245 243 242 242 243 244 244 244
306 308 310 312 313 313 315 316 317 318 318 319 319 319 319 320 321 321 320 318 316 312 308 306 302 298 293 289 282 276 271 265 259 252 249 246 244 243 243 244 245 244 244
305 308 311 314 315 315 315 316 318 320 321 321 319 319 321 321 321 322 324 325 322 319 314 309 305 301 296 291 285 281 275 265 259 254 250 248 246 244 244 245 246 243 243
307 309 311 315 317 316 316 318 320 322 323 323 322 322 322 322 323 323 323 326 323 321 319 317 312 306 301 293 290 285 276 266 263 257 254 251 246 242 241 242 243 242 242
310 310 314 318 320 320 319 319 323 325 325 325 325 325 324 323 324 323 322 326 327 324 321 320 318 313 309 301 296 289 280 270 265 259 255 249 244 240 239 241 243 244 244
312 314 317 321 323 324 325 324 325 327 329 329 330 328 327 328 328 324 322 321 325 327 327 323 320 318 313 309 302 294 284 276 269 260 254 253 249 245 243 244 246 246 246
313 315 317 322 324 325 327 330 331 330 333 333 333 332 330 330 331 329 326 326 325 326 329 329 328 323 318 314 310 303 294 280 270 266 260 255 253 251 250 250 249 250 250
316 319 319 322 323 323 326 329 333 335 336 336 337 337 335 334 334 334 333 331 328 326 325 323 324 322 318 318 314 307 300 290 278 271 267 265 262 259 258 257 256 255 255
319 320 322 325 326 326 328 329 332 335 337 338 339 340 338 336 334 332 330 329 327 325 323 322 320 321 319 316 313 307 302 296 288 280 276 273 269 264 263 262 262 260 259
323 325 328 330 329 334 336 333 334 335 336 336 336 336 336 335 334 332 330 328 326 326 323 319 317 318 316 312 311 308 301 298 294 287 282 278 274 270 267 267 266 264 262
326 329 330 330 330 333 335 334 334 335 334 335 336 336 334 334 332 331 330 330 330 327 324 323 319 314 311 307 305 303 300 297 294 291 286 283 278 274 273 271 269 267 264
330 332 333 334 335 337 335 336 337 337 337 337 337 336 334 334 334 332 331 329 326 324 321 318 316 315 312 307 304 300 297 294 293 290 287 286 282 276 275 273 271 270 268
330 332 335 336 337 339 339 339 340 339 338 337 337 336 336 335 334 333 331 328 324 321 319 318 317 317 313 309 307 305 302 297 293 290 286 284 282 279 277 275 273 272 270
331 333 337 339 339 341 342 342 342 340 338 335 334 334 334 334 333 331 328 325 323 321 320 318 316 314 314 312 308 305 303 300 296 292 288 285 283 281 280 278 277 275 273
336 335 336 339 342 343 344 344 343 342 341 338 336 335 334 332 330 328 324 323 323 321 319 317 314 313 312 311 308 305 303 301 299 296 292 289 287 285 284 281 278 276 273
347 348 346 345 345 344 344 343 342 341 343 341 340 337 335 332 328 326 324 323 321 318 316 314 313 312 311 309 307 305 303 301 299 298 295 291 290 288 286 284 282 280 278
344 345 347 346 345 344 343 342 342 341 338 338 338 336 334 331 329 327 325 323 322 320 318 316 314 311 309 307 307 306 304 302 301 298 297 294 291 289 287 285 284 282 279
347 347 347 346 345 344 342 340 340 341 339 338 336 335 334 335 335 332 328 325 324 322 320 318 316 314 312 311 309 307 306 304 302 300 297 296 294 292 291 290 287 283 280
352 351 349 347 346 344 342 340 340 340 339 338 337 336 335 335 334 331 329 327 326 324 322 320 318 316 314 313 312 310 309 307 305 304 302 299 297 295 293 290 288 286 283
354 352 350 349 347 346 345 345 343 342 340 340 338 337 335 334 333 332 330 328 327 325 322 320 318 316 315 314 313 312 311 309 307 306 304 302 299 297 295 292 289 287 285
355 353 351 349 348 346 345 345 344 342 341 341 340 339 337 335 334 333 331 329 327 325 322 322 321 319 317 314 312 311 310 309 308 307 305 304 301 299 297 296 293 290 288
354 352 350 347 346 345 343 342 342 341 341 340 339 338 337 336 334 332 331 329 326 324 324 324 323 321 319 316 313 312 311 311 310 308 306 304 303 301 300 298 297 295 292
351 349 347 346 344 343 343 341 340 340 339 339 338 336 336 335 334 331 330 328 326 325 324 323 322 321 319 317 316 315 313 312 310 309 307 305 303 301 299 297 297 296 295
Height
5788 5786 5783 5780 5777 5773 5769 5766 5762 5758 5754 5750 5746 5742 5738 5734 5730 5727 5723 5719 5716 5713 5711 5709 5707 5705 5704 5703 5703 5703 5703 5704 5706 5707 5709 5711 5713 5715 5717 5719 5722 5724 5726
5784 5781 5778 5775 5772 5768 5765 5761 5757 5754 5750 5746 5742 5738 5734 5730 5726 5722 5718 5715 5712 5709 5706 5704 5702 5700 5699 5698 5697 5697 5697 5698 5699 5700 5702 5704 5706 5708 5710 5713 5715 5717 5719
5779 5776 5774 5771 5768 5764 5761 5757 5753 5749 5746 5742 5738 5734 5730 5726 5722 5718 5714 5711 5707 5704 5702 5700 5698 5696 5694 5693 5692 5692 5692 5692 5692 5694 5695 5697 5699 5701 5704 5706 5708 5710 5712
5774 5772 5769 5766 5763 5760 5757 5753 5749 5745 5742 5738 5734 5730 5726 5722 5718 5714 5711 5707 5703 5700 5698 5695 5693 5692 5690 5688 5688 5687 5687 5687 5687 5688 5690 5691 5693 5695 5698 5700 5702 5704 5706
5770 5768 5765 5762 5759 5756 5752 5749 5745 5741 5738 5734 5730 5726 5722 5718 5714 5710 5707 5703 5700 5697 5694 5692 5689 5688 5686 5685 5684 5683 5682 5682 5683 5683 5684 5686 5688 5689 5692 5694 5696 5697 5699
5766 5764 5761 5758 5755 5752 5748 5745 5741 5737 5733 5730 5726 5722 5718 5714 5711 5707 5703 5700 5697 5694 5691 5688 5686 5684 5683 5681 5680 5679 5678 5678 5678 5679 5680 5681 5682 5684 5686 5688 5689 5691 5693
5762 5760 5757 5754 5751 5747 5744 5741 5737 5733 5730 5726 5722 5718 5714 5711 5707 5704 5700 5697 5694 5691 5688 5686 5684 5682 5680 5678 5677 5676 5675 5674 5674 5675 5676 5676 5678 5679 5681 5683 5683 5685 5686
5758 5756 5753 5750 5747 5744 5740 5737 5733 5730 5726 5722 5718 5714 5711 5707 5704 5701 5697 5694 5691 5688 5686 5683 5681 5679 5677 5675 5674 5672 5671 5671 5671 5671 5671 5672 5673 5674 5676 5677 5678 5680 5681
5755 5752 5750 5747 5744 5740 5737 5733 5730 5726 5722 5718 5715 5711 5708 5704 5701 5698 5695 5692 5689 5686 5684 5681 5679 5677 5675 5673 5671 5670 5669 5668 5667 5667 5668 5668 5669 5670 5671 5672 5673 5674 5675
5752 5749 5746 5744 5740 5737 5734 5730 5727 5724 5720 5716 5712 5709 5705 5702 5699 5696 5692 5689 5687 5684 5682 5680 5677 5675 5673 5671 5669 5668 5666 5665 5665 5664 5664 5665 5665 5665 5666 5667 5667 5668 5669
5748 5746 5743 5740 5737 5734 5731 5728 5725 5721 5717 5714 5710 5707 5703 5700 5697 5694 5691 5688 5685 5683 5681 5678 5676 5673 5671 5669 5667 5666 5664 5663 5662 5661 5661 5661 5660 5660 5661 5661 5661 5662 5663
5745 5743 5740 5737 5735 5732 5728 5725 5722 5719 5716 5712 5709 5705 5702 5698 5695 5692 5689 5686 5684 5681 5679 5676 5674 5671 5669 5667 5665 5664 5662 5661 5659 5658 5657 5657 5656 5656 5656 5656 5656 5656 5656
5742 5740 5737 5735 5732 5729 5726 5723 5720 5717 5714 5710 5707 5704 5700 5697 5693 5690 5687 5684 5682 5679 5676 5674 5672 5669 5667 5665 5663 5661 5660 5658 5656 5655 5654 5653 5652 5651 5651 5651 5650 5650 5650
5740 5738 5735 5733 5730 5727 5724 5721 5718 5715 5712 5708 5705 5702 5698 5695 5691 5688 5685 5682 5679 5677 5674 5672 5669 5666 5664 5662 5660 5658 5656 5654 5653 5651 5650 5648 5647 5646 5646 5645 5645 5644 5644
5738 5735 5733 5730 5728 5725 5722 5719 5716 5713 5710 5706 5703 5700 5696 5693 5690 5686 5683 5680 5677 5674 5672 5669 5666 5663 5661 5659 5656 5654 5652 5650 5648 5646 5645 5643 5642 5641 5640 5639 5638 5637 5637
5736 5733 5731 5729 5726 5723 5720 5717 5714 5711 5708 5704 5701 5697 5694 5691 5687 5684 5680 5677 5674 5671 5668 5666 5663 5660 5657 5654 5652 5650 5647 5645 5643 5641 5639 5638 5636 5635 5634 5632 5631 5631 5630
5733 5732 5729 5727 5724 5721 5719 5715 5712 5709 5706 5702 5699 5695 5691 5688 5684 5681 5678 5674 5671 5668 5665 5662 5659 5656 5653 5650 5648 5645 5642 5640 5637 5635 5633 5631 5629 5628 5627 5626 5625 5624 5623
5731 5730 5727 5725 5723 5720 5717 5714 5711 5708 5704 5700 5696 5693 5689 5685 5681 5678 5674 5671 5667 5664 5661 5658 5654 5651 5648 5645 5642 5640 5637 5634 5631 5629 5626 5624 5622 5621 5620 5618 5617 5616 5615
5731 5728 5726 5723 5721 5718 5715 5712 5709 5706 5702 5698 5694 5690 5686 5682 5678 5674 5670 5667 5663 5660 5656 5653 5650 5646 5643 5640 5637 5633 5630 5627 5625 5622 5620 5617 5615 5614 5612 5610 5609 5608 5606
5729 5727 5724 5722 5719 5716 5713 5710 5707 5703 5699 5696 5692 5688 5683 5679 5674 5671 5667 5663 5659 5655 5651 5648 5644 5641 5637 5634 5630 5627 5624 5621 5618 5615 5612 5610 5608 5606 5604 5602 5601 5599 5597
5728 5726 5723 5720 5718 5715 5712 5708 5705 5701 5697 5693 5689 5684 5680 5675 5671 5667 5662 5658 5654 5650 5646 5642 5638 5635 5631 5627 5624 5620 5617 5614 5611 5608 5605 5603 5600 5598 5596 5593 5591 5590 5588
5727 5724 5722 5719 5716 5713 5710 5706 5702 5698 5695 5690 5686 5681 5676 5672 5667 5662 5658 5653 5649 5644 5640 5637 5633 5629 5625 5621 5617 5613 5610 5607 5604 5600 5597 5595 5592 5589 5587 5584 5582 5580 5578
5726 5723 5720 5718 5715 5711 5708 5704 5701 5696 5692 5688 5683 5678 5673 5668 5663 5659 5653 5649 5644 5639 5635 5630 5626 5622 5618 5614 5610 5606 5603 5599 5596 5593 5590 5587 5584 5581 5578 5575 5573 5570 5568
5725 5722 5719 5716 5713 5710 5706 5703 5698 5694 5690 5685 5680 5675 5670 5665 5659 5654 5649 5644 5639 5634 5629 5624 5620 5615 5611 5607 5603 5599 5595 5591 5588 5585 5582 5578 5575 5572 5569 5566 5563 5560 5558
5723 5720 5718 5715 5712 5708 5704 5700 5696 5691 5687 5681 5676 5671 5666 5660 5655 5649 5644 5639 5634 5628 5623 5618 5613 5608 5603 5599 5595 5591 5587 5583 5580 5576 5573 5569 5566 5563 5560 5556 5553 5550 5547
5722 5719 5716 5713 5710 5706 5702 5698 5693 5688 5683 5678 5672 5667 5661 5656 5650 5645 5639 5633 5628 5622 5616 5611 5606 5601 5596 5591 5587 5583 5579 5575 5571 5567 5563 5560 5556 5553 5550 5547 5544 5541 5538